Evergreen, AL

10:50 PM CDT on April 19, 2018 (GMT -0500)
Middleton

Weather History for KGZH - December, 2013

Change the Weather History Date:

Sunday, December 22, 2013

  Actual Average (KPRN) Record (KPRN)
Temperature  
Mean Temperature 64 °F -  
Max Temperature 73 °F 61 °F 78 °F (1990)
Min Temperature 55 °F 39 °F 10 °F (1989)
Degree Days  
Heating Degree Days 1    
Growing Degree Days 14 (Base 50)    
Moisture  
Dew Point 58 °F    
Average Humidity 91    
Maximum Humidity 94    
Minimum Humidity 84    
Precipitation  
Precipitation 5.17 in - - ()
Sea Level Pressure  
Sea Level Pressure 29.99 in    
Wind  
Wind Speed 10 mph (NNW)    
Max Wind Speed 18 mph    
Max Gust Speed 28 mph    
Visibility 4 miles    
Events Fog , Rain , Thunderstorm    
Averages and records for this station are not official NWS values.
T = Trace of Precipitation, MM = Missing Value Source: NWS Daily Summary

Daily Weather History Graph

Daily Weather History Graph

Search for Another Location

Airport or City:

Astronomy

Dec. 22, 2013 Rise Set
Actual Time 6:43 AM CST 4:50 PM CST
Civil Twilight 6:17 AM CST 5:16 PM CST
Nautical Twilight 5:46 AM CST 5:47 PM CST
Astronomical Twilight 5:16 AM CST 6:16 PM CST
Moon 9:44 PM CST (12/22) 9:56 AM CST (12/22)
Length of Visible Light 10h 59m
Length of Day
10h 06m
Waning Gibbous, 76% of the Moon is Illuminated
Dec 22
Waning Gibbous
Dec 25
Last Quarter
Jan 1
New
Jan 7
First Quarter
Jan 15
Full

Hourly Weather History & Observations

Time (CST) Temp. Dew Point Humidity Pressure Visibility Wind Dir Wind Speed Gust Speed Precip Events Conditions
12:53 AM 73.9 °F 70.0 °F 87% 29.90 in 10.0 mi South 13.8 mph 24.2 mph 0.00 in Rain Light Rain
1:28 AM 73.9 °F 70.0 °F 87% 29.91 in 10.0 mi South 18.4 mph - 0.00 in   Overcast
1:53 AM 73.9 °F 70.0 °F 87% 29.90 in 9.0 mi South 16.1 mph - 0.00 in Rain Light Rain
2:02 AM 73.9 °F 69.1 °F 85% 29.90 in 10.0 mi South 15.0 mph 25.3 mph 0.00 in Rain Light Rain
2:39 AM 73.9 °F 70.0 °F 87% 29.90 in 5.0 mi South 18.4 mph - 0.03 in Rain Light Rain
2:53 AM 73.0 °F 70.0 °F 90% 29.89 in 3.0 mi South 13.8 mph 23.0 mph 0.07 in Rain Rain
3:14 AM 73.0 °F 70.0 °F 90% 29.89 in 8.0 mi South 17.3 mph - 0.01 in Rain Light Rain
3:36 AM 73.0 °F 70.0 °F 90% 29.89 in 9.0 mi South 12.7 mph - 0.02 in Rain Light Rain
3:53 AM 73.9 °F 70.0 °F 87% 29.88 in 10.0 mi South 17.3 mph - 0.02 in   Overcast
4:03 AM 73.9 °F 70.0 °F 87% 29.89 in 10.0 mi South 18.4 mph 26.5 mph N/A   Overcast
4:50 AM 73.4 °F 69.8 °F 88% 29.89 in 2.5 mi SW 9.2 mph - 0.06 in Rain Heavy Rain
4:53 AM 73.0 °F 70.0 °F 90% 29.89 in 3.0 mi SW 10.4 mph - 0.07 in Rain Heavy Rain
5:01 AM 73.0 °F 70.0 °F 90% 29.89 in 9.0 mi South 11.5 mph - 0.00 in Rain Light Rain
5:12 AM 73.9 °F 70.0 °F 87% 29.88 in 8.0 mi South 15.0 mph 27.6 mph 0.00 in Rain Light Rain
5:25 AM 73.9 °F 70.0 °F 87% 29.89 in 10.0 mi South 18.4 mph 24.2 mph 0.00 in   Overcast
5:53 AM 73.9 °F 70.0 °F 87% 29.89 in 7.0 mi South 18.4 mph - 0.01 in Rain Light Rain
6:24 AM 73.9 °F 70.0 °F 87% 29.91 in 9.0 mi SSW 11.5 mph - 0.00 in Rain Light Rain
6:29 AM 73.9 °F 70.0 °F 87% 29.92 in 10.0 mi West 12.7 mph - 0.00 in Rain , Thunderstorm Light Rain
6:36 AM 66.0 °F 61.0 °F 84% 29.93 in 10.0 mi WSW 10.4 mph 18.4 mph 0.00 in Thunderstorm Overcast
6:47 AM 64.4 °F 60.8 °F 88% 29.94 in 2.5 mi NW 11.5 mph 17.3 mph 0.07 in Rain Heavy Rain
6:48 AM 64.4 °F 60.8 °F 88% 29.94 in 1.5 mi NW 11.5 mph 18.4 mph 0.11 in Rain Heavy Rain
6:53 AM 63.0 °F 60.1 °F 90% 29.94 in 0.8 mi NW 9.2 mph 18.4 mph 0.21 in Rain Heavy Rain
6:59 AM 62.1 °F 60.1 °F 93% 29.96 in 1.0 mi NW 9.2 mph - 0.03 in Rain Heavy Rain
7:05 AM 62.1 °F 60.1 °F 93% 29.96 in 2.0 mi NNW 10.4 mph - 0.05 in Rain Rain
7:16 AM 61.0 °F 57.9 °F 90% 29.98 in 1.2 mi NNW 12.7 mph 19.6 mph 0.18 in Rain Heavy Rain
7:25 AM 60.1 °F 57.9 °F 93% 29.99 in 2.0 mi Variable 4.6 mph - 0.21 in Rain Heavy Rain
7:37 AM 60.1 °F 57.9 °F 93% 29.99 in 1.8 mi Variable 6.9 mph - 0.26 in Rain Rain
7:41 AM 60.1 °F 57.9 °F 93% 29.98 in 2.0 mi North 10.4 mph - 0.28 in Rain Heavy Rain
7:53 AM 59.0 °F 57.0 °F 93% 30.00 in 2.5 mi NNW 9.2 mph - 0.33 in Rain Rain
8:18 AM 59.0 °F 55.9 °F 90% 30.00 in 3.0 mi North 6.9 mph - 0.12 in Rain , Thunderstorm Light Rain
8:27 AM 57.9 °F 55.9 °F 93% 30.01 in 1.8 mi North 5.8 mph - 0.20 in Rain , Thunderstorm Heavy Rain
8:33 AM 57.9 °F 55.9 °F 93% 30.02 in 1.5 mi Variable 4.6 mph - 0.24 in Rain , Thunderstorm Heavy Rain
8:45 AM 57.9 °F 55.9 °F 93% 30.01 in 1.5 mi NNW 9.2 mph - 0.31 in Rain Heavy Rain
8:53 AM 57.9 °F 55.0 °F 90% 30.00 in 1.8 mi NNE 8.1 mph - 0.36 in Rain Heavy Rain
9:10 AM 57.9 °F 55.0 °F 90% 30.02 in 3.0 mi North 5.8 mph - 0.08 in Rain Rain
9:19 AM 57.0 °F 55.0 °F 93% 30.03 in 1.8 mi NNW 6.9 mph - 0.14 in Rain Heavy Rain
9:28 AM 57.0 °F 55.0 °F 93% 30.06 in 1.2 mi Calm Calm - 0.19 in Rain , Thunderstorm Heavy Rain
9:37 AM 57.0 °F 54.0 °F 89% 30.03 in 0.5 mi North 6.9 mph - 0.41 in Fog , Rain Heavy Rain
9:53 AM 57.0 °F 55.0 °F 93% 30.03 in 1.2 mi North 4.6 mph - 0.61 in Rain Heavy Rain
10:14 AM 57.0 °F 55.0 °F 93% 30.03 in 0.8 mi Variable 3.5 mph - 0.19 in Rain Heavy Rain
10:29 AM 57.0 °F 55.0 °F 93% 30.02 in 1.2 mi NNE 4.6 mph - 0.35 in Rain Heavy Rain
10:37 AM 57.0 °F 55.0 °F 93% 30.03 in 1.2 mi NE 3.5 mph - 0.41 in Rain Heavy Rain
10:48 AM 57.2 °F 55.4 °F 94% 30.01 in 0.8 mi NNW 8.1 mph - 0.60 in Rain , Thunderstorm Heavy Thunderstorms and Rain
10:53 AM 57.0 °F 55.0 °F 93% 30.02 in 1.0 mi Variable 4.6 mph - 0.64 in Rain , Thunderstorm Heavy Thunderstorms and Rain
11:03 AM 57.0 °F 55.0 °F 93% 30.02 in 1.5 mi ENE 3.5 mph - 0.05 in Rain Rain
11:10 AM 57.0 °F 55.0 °F 93% 30.02 in 3.0 mi Calm Calm - 0.07 in Rain Rain
11:15 AM 57.0 °F 55.0 °F 93% 30.01 in 2.5 mi Calm Calm - 0.08 in Rain Rain
11:23 AM 57.9 °F 55.0 °F 90% 30.01 in 1.8 mi NNE 3.5 mph - 0.12 in Rain Rain
11:53 AM 57.9 °F 55.9 °F 93% 29.99 in 2.0 mi North 3.5 mph - 0.29 in Rain Heavy Rain
11:55 AM 57.9 °F 55.9 °F 93% 30.00 in 1.5 mi Calm Calm - 0.03 in Rain Heavy Rain
12:11 PM 57.9 °F 55.0 °F 90% 30.01 in 1.0 mi NNW 6.9 mph - 0.19 in Rain , Thunderstorm Heavy Rain
12:26 PM 57.9 °F 55.9 °F 93% 29.99 in 1.2 mi North 5.8 mph - 0.31 in Rain Heavy Rain
12:42 PM 57.9 °F 55.9 °F 93% 30.00 in 2.5 mi North 4.6 mph - 0.37 in Rain Heavy Rain
12:51 PM 57.2 °F 55.4 °F 94% 30.00 in 3.0 mi NW 5.8 mph - 0.38 in Rain Rain
12:53 PM 57.9 °F 55.9 °F 93% 30.00 in 2.0 mi NNW 5.8 mph - 0.41 in Rain Rain
1:00 PM 57.9 °F 55.9 °F 93% 30.01 in 1.5 mi NNW 4.6 mph - 0.03 in Rain Rain
1:07 PM 57.9 °F 55.9 °F 93% 29.99 in 2.0 mi Variable 3.5 mph - 0.06 in Rain Rain
1:14 PM 57.9 °F 55.9 °F 93% 29.99 in 5.0 mi North 4.6 mph - 0.06 in Rain , Thunderstorm Light Rain
1:35 PM 57.9 °F 55.9 °F 93% 29.99 in 6.0 mi Variable 3.5 mph - 0.09 in Rain Light Rain
1:42 PM 59.0 °F 55.9 °F 90% 29.99 in 8.0 mi North 5.8 mph - 0.09 in Rain Light Rain
1:53 PM 59.0 °F 55.9 °F 90% 29.98 in 7.0 mi ENE 5.8 mph - 0.10 in Rain Light Rain
2:10 PM 59.0 °F 55.9 °F 90% 29.98 in 4.0 mi North 3.5 mph - 0.01 in Rain Light Rain
2:28 PM 59.0 °F 55.9 °F 90% 29.99 in 9.0 mi ENE 3.5 mph - 0.02 in Rain Light Rain
2:53 PM 59.0 °F 55.9 °F 90% 29.97 in 3.0 mi NNE 3.5 mph - 0.05 in Rain Light Rain
3:17 PM 57.9 °F 55.9 °F 93% 29.99 in 1.5 mi Variable 3.5 mph - 0.07 in Rain Rain
3:22 PM 57.9 °F 55.9 °F 93% 29.98 in 0.8 mi Variable 3.5 mph - 0.13 in Rain Heavy Rain
3:30 PM 57.9 °F 55.9 °F 93% 29.99 in 2.0 mi Calm Calm - 0.15 in Rain Light Rain
3:34 PM 57.9 °F 55.9 °F 93% 29.99 in 3.0 mi ENE 3.5 mph - 0.16 in Rain Light Rain
3:39 PM 57.9 °F 55.0 °F 90% 29.99 in 2.5 mi NNW 5.8 mph - 0.20 in Rain Heavy Rain
3:44 PM 57.9 °F 55.9 °F 93% 29.99 in 0.8 mi NNW 4.6 mph - 0.33 in Rain Heavy Rain
3:53 PM 57.9 °F 55.9 °F 93% 29.99 in 0.8 mi Calm Calm - 0.42 in Rain Heavy Rain
4:00 PM 57.0 °F 55.0 °F 93% 29.99 in 1.2 mi North 6.9 mph - 0.04 in Rain Rain
4:06 PM 57.0 °F 55.0 °F 93% 30.00 in 3.0 mi NW 4.6 mph - 0.04 in Rain Rain
4:23 PM 57.0 °F 55.0 °F 93% 30.00 in 1.8 mi NNW 3.5 mph - 0.15 in Rain Heavy Rain
4:41 PM 57.0 °F 55.0 °F 93% 30.01 in 3.0 mi NW 4.6 mph - 0.26 in Rain Rain
4:53 PM 57.0 °F 55.0 °F 93% 30.03 in 4.0 mi NNW 4.6 mph - 0.27 in Rain Light Rain
5:26 PM 57.0 °F 55.0 °F 93% 30.05 in 4.0 mi WNW 6.9 mph - 0.06 in Rain , Thunderstorm Rain
5:29 PM 57.0 °F 55.0 °F 93% 30.04 in 2.0 mi NNW 8.1 mph - 0.12 in Rain , Thunderstorm Heavy Rain
5:36 PM 57.0 °F 55.0 °F 93% 30.07 in 0.8 mi Calm Calm - 0.28 in Rain , Thunderstorm Heavy Rain
5:41 PM 57.0 °F 55.0 °F 93% 30.06 in 1.0 mi NNW 8.1 mph - 0.33 in Rain , Thunderstorm Heavy Rain
5:48 PM 55.4 °F 53.6 °F 94% 30.06 in 1.8 mi North 10.4 mph 18.4 mph 0.42 in Rain , Thunderstorm Heavy Thunderstorms and Rain
5:53 PM 55.9 °F 54.0 °F 93% 30.07 in 2.0 mi NNW 10.4 mph 18.4 mph 0.48 in Rain , Thunderstorm Heavy Thunderstorms and Rain
6:04 PM 55.0 °F 53.1 °F 93% 30.07 in 1.5 mi North 6.9 mph - 0.15 in Rain , Thunderstorm Heavy Rain
6:11 PM 55.0 °F 52.0 °F 89% 30.07 in 2.0 mi North 5.8 mph - 0.20 in Rain Heavy Rain
6:17 PM 55.0 °F 52.0 °F 89% 30.09 in 3.0 mi NNW 3.5 mph - 0.24 in Rain Heavy Rain
6:22 PM 55.0 °F 52.0 °F 89% 30.09 in 1.8 mi NW 3.5 mph - 0.33 in Rain Heavy Rain
6:43 PM 55.0 °F 53.1 °F 93% 30.08 in 2.5 mi NNW 6.9 mph - 0.54 in Rain Heavy Rain
6:53 PM 55.0 °F 53.1 °F 93% 30.10 in 3.0 mi Calm Calm - 0.59 in Rain Rain
7:53 PM 55.0 °F 53.1 °F 93% 30.09 in 4.0 mi Variable 3.5 mph - 0.09 in Rain Heavy Rain
8:15 PM 55.0 °F 53.1 °F 93% 30.11 in 1.8 mi Calm Calm - 0.08 in Rain Heavy Rain
8:27 PM 55.0 °F 53.1 °F 93% 30.09 in 3.0 mi NNW 3.5 mph - 0.14 in Rain Heavy Rain
8:53 PM 55.0 °F 52.0 °F 89% 30.09 in 10.0 mi NW 5.8 mph - 0.15 in Rain Light Rain
9:53 PM 55.0 °F 53.1 °F 93% 30.10 in 10.0 mi Calm Calm - 0.00 in   Overcast
10:53 PM 55.0 °F 52.0 °F 89% 30.12 in 8.0 mi NW 4.6 mph - 0.00 in Rain Light Rain
11:53 PM 55.0 °F 51.1 °F 86% 30.11 in 10.0 mi Calm Calm - 0.00 in   Overcast